Printer-friendly version

IAU Minor Planet Center

Minor Planet Center

MPEC 2006-U14 : 2006 UR

The following Minor Planet Electronic Circular may be linked-to from your own Web pages, but must not otherwise be redistributed electronically.


Read MPEC 2006-U13 Read MPEC 2006-U15


M.P.E.C. 2006-U14                                Issued 2006 Oct. 18, 15:11 UT

     The Minor Planet Electronic Circulars contain information on unusual
         minor planets and routine data on comets.  They are published
   on behalf of Commission 20 of the International Astronomical Union by the
          Minor Planet Center, Smithsonian Astrophysical Observatory,
                          Cambridge, MA 02138, U.S.A.

             Prepared using the Tamkin Foundation Computer Network

                              MPC@CFA.HARVARD.EDU
          URL http://cfa-www.harvard.edu/iau/mpc.html  ISSN 1523-6714

                                    2006 UR

Observations:
     K06U00R* C2006 10 17.08369 23 17 39.45 +08 21 51.8          20.7 V EU014691
     K06U00R  C2006 10 17.10493 23 17 37.97 +08 21 38.4          20.4 V EU014691
     K06U00R  C2006 10 17.12616 23 17 36.52 +08 21 24.6          20.4 V EU014691
     K06U00R FC2006 10 17.96661 23 16 41.30 +08 12 14.5          20.2 V EU014595
     K06U00R FC2006 10 18.00297 23 16 38.87 +08 11 50.8          20.6 V EU014595
     K06U00R  C2006 10 18.09727 23 16 33.73 +08 10 53.0          20.4 V EU014291
     K06U00R  C2006 10 18.10104 23 16 33.55 +08 10 51.1          20.4 V EU014291
     K06U00R  C2006 10 18.10492 23 16 33.23 +08 10 47.8          20.5 V EU014291

Observer details:
291 LPL/Spacewatch II.  Observer T. H. Bressi.  1.8-m f/2.7 reflector + CCD.
595 Farra d'Isonzo.  Observers G. Lombardi, E. Pettarin.  Measurer E. Pettarin.
    0.40-m f/4.5 reflector + CCD.
691 Steward Observatory, Kitt Peak.  Observer T. H. Bressi.  0.9-m f/3
    reflector + CCD.

Orbital elements:
2006 UR                                             PHA, Earth MOID = 0.0130 AU
Epoch 2006 Oct. 12.0 TT = JDT 2454020.5                 MPC
M 139.27060              (2000.0)            P               Q
n   0.69642908     Peri.  254.52890     -0.87972128     +0.46830218
a   1.2605250      Node   313.31438     -0.38121986     -0.79817350
e   0.4140598      Incl.    6.49964     -0.28418636     -0.37896191
P   1.42           H   18.8           G   0.15
From 8 observations 2006 Oct. 17-18.  E-assumed.

Ephemeris:
2006 UR                  a,e,i = 1.26, 0.41, 6                   q = 0.7386
Date    TT    R. A. (2000) Decl.     Delta      r     Elong.  Phase     V
2006 10 12    23 24.06   +09 20.5    0.762    1.716   154.2    14.7    20.2
2006 10 22    23 12.91   +07 31.1    0.840    1.737   142.2    20.5    20.6
2006 11 01    23 07.52   +06 09.1    0.934    1.754   131.1    25.2    21.0
2006 11 11    23 07.17   +05 17.2    1.039    1.767   121.0    28.7    21.4
2006 11 21    23 10.92   +04 53.5    1.152    1.776   111.9    31.1    21.7
2006 12 01    23 17.97   +04 55.0    1.270    1.781   103.6    32.6    21.9

Timothy B. Spahr             (C) Copyright 2006 MPC           M.P.E.C. 2006-U14

Read MPEC 2006-U13 Read MPEC 2006-U15


Our Web policy. Index to the CBAT/MPC/ICQ pages.


Valid HTML 4.01!